Regional Weather Roundup
Issued by NWS

Home | Current Version | Previous Version | Graphics & Text | Print | Product List | Glossary On
Versions: 1 2 3 4 5 6 7 8 9 10 11 12 13 14 15 16 17 18 19 20 21 22 23 24 25 26 27 28 29 30 31 32 33 34 35 36 37 38 39 40 41 42 43 44 45 46 47 48 49 50
311
ASUS43 KMKX 301400
RWRWI

WISCONSIN REGIONAL WEATHER ROUNDUP
NATIONAL WEATHER SERVICE MILWAUKEE/SULLIVAN WI
900 AM CDT MON MAY 30 2016

NOTE: "FAIR" INDICATES FEW OR NO CLOUDS BELOW 12,000 FEET WITH NO
SIGNIFICANT WEATHER AND/OR OBSTRUCTIONS TO VISIBILITY.

WIZ001-002-006>008-014>016-023>028-301500-
NORTHWEST WISCONSIN

CITY           SKY/WX    TMP DP  RH WIND       PRES   REMARKS
SUPERIOR ARPT  SUNNY     66  56  69 W7        29.97F
ASHLAND        SUNNY     68  55  63 SW8       29.98S
HAYWARD        SUNNY     65  54  67 S3        30.02R
SIREN          SUNNY     67  55  66 SW6       30.01S
CUMBERLAND     SUNNY     64  57  77 SW3       30.02S
RICE LAKE      SUNNY     64  55  75 CALM      30.03F
CHETEK         SUNNY     62  59  91 CALM      30.02S
LADYSMITH      SUNNY     65  55  69 W6        30.04R
EAU CLAIRE     NOT AVBL
MENOMONIE      SUNNY     67  62  82 CALM      30.03R
NEW RICHMOND   MOSUNNY   66  61  82 SW3       30.03R
OSCEOLA        CLOUDY    65  64  97 CALM      30.05R
$$

WIZ003>005-009-010-017-018-301500-
NORTH CENTRAL WISCONSIN

CITY           SKY/WX    TMP DP  RH WIND       PRES   REMARKS
MANITOWISH WTR NOT AVBL
ARBOR VITAE    SUNNY     64  54  69 NW5       30.00F
WOODRUFF       SUNNY     64  54  69 NW5       30.00F
RHINELANDER    SUNNY     66  52  60 W9        30.02R
EAGLE RIVER      N/A     64  51  64 W5        30.00F
LAND O LAKES   SUNNY     64  53  68 W6        30.01S
PHILLIPS       SUNNY     63  56  77 W5        30.02R
TOMAHAWK       SUNNY     63  54  71 W8        30.03R
MEDFORD        SUNNY     64  56  77 W6        30.03R
MERRILL        SUNNY     64  57  77 NW3       30.02S
$$

WIZ029-030-035-036-043>047-301500-
CENTRAL WISCONSIN

CITY           SKY/WX    TMP DP  RH WIND       PRES   REMARKS
WAUSAU         SUNNY     69  54  58 NW6       30.01R
MOSINEE        SUNNY     70  55  60 SW5       30.04R
MARSHFIELD     SUNNY     69  56  62 NW6       30.02S
STEVENS POINT  SUNNY     66  56  69 CALM      30.03R
WAUPACA        SUNNY     71  59  65 NW5       30.02R
WAUTOMA        SUNNY    N/A N/A N/A NW6       30.03S
WISC RAPIDS    CLOUDY    71  54  54 CALM      30.04R
CAMP DOUGLAS   CLOUDY    70  70 100 W5        30.04R
$$

WIZ011>013-019>022-031-037>040-048>050-301500-
NORTHEAST WISCONSIN

CITY           SKY/WX    TMP DP  RH WIND       PRES   REMARKS
ANTIGO         SUNNY     63  54  72 NW6       30.02S
SHAWANO        SUNNY     69  57  65 W3        30.00F
OCONTO         SUNNY     68  62  78 W6        29.99S
STURGEON BAY   NOT AVBL
GREEN BAY      SUNNY     71  59  65 VRB5      30.00S
MANITOWOC      NOT AVBL
APPLETON       NOT AVBL
CLINTONVILLE   SUNNY     68  55  64 NW3       30.01S
OSHKOSH        MOSUNNY   71  60  68 NW5       30.02R
$$

WIZ032>034-041-042-053>061-301500-
SOUTHWEST WISCONSIN

CITY           SKY/WX    TMP DP  RH WIND       PRES   REMARKS
LA CROSSE      MOSUNNY   66  61  84 S5        30.03S
SPARTA         CLOUDY    65  60  82 CALM      30.05R
VIROQUA        MOSUNNY   68  59  73 CALM      30.06R
BOSCOBEL       SUNNY     68  62  81 CALM      30.05S
PRAIRIE DU CHI SUNNY     65  60  84 CALM      30.05S
PLATTEVILLE    SUNNY     70  63  79 N3        30.05S
$$

WIZ056-057-062-063-064-067-068-301500-
SOUTH CENTRAL WISCONSIN

CITY           SKY/WX    TMP DP  RH WIND       PRES   REMARKS
REEDSBURG      CLOUDY    67  60  79 CALM      30.03S
BARABOO/DELLS  CLOUDY    68  57  66 CALM      30.04R
LONE ROCK      MOSUNNY   64  63  94 CALM      30.05R
MINERAL POINT  SUNNY     72  61  68 N6        30.06R
MADISON        PTSUNNY   71  61  70 NW3       30.03S
MIDDLETON      SUNNY     71  61  69 NW5       30.04S
WATERTOWN      SUNNY     69  62  76 W3        30.02F
MONROE         MOSUNNY   70  59  68 NW5       30.04S
JANESVILLE     SUNNY     73  59  60 CALM      30.02S
$$

WIZ051-052-058>065-066-070>072-301500-
SOUTHEAST WISCONSIN

CITY           SKY/WX    TMP DP  RH WIND       PRES   REMARKS
MILWAUKEE      MOSUNNY   75  59  57 NW7       30.02S
WAUKESHA       SUNNY     70  59  68 W6        30.04S
MILWAUKEE/TIMM SUNNY     72  55  56 MISG      30.03S
RACINE         SUNNY     74  58  57 W5        30.04S
BURLINGTON     SUNNY     71  57  60 NW5       30.03S
KENOSHA        SUNNY     75  60  59 N5        30.03S
FOND DU LAC    SUNNY     70  62  76 W3        30.02S
SHEBOYGAN      MOSUNNY   71  59  65 NW5       30.01S
WEST BEND      SUNNY     70  59  68 W5        30.03R
JUNEAU         SUNNY     68  60  76 CALM      30.04S
$$

LSZ147-162-301500-
LAKE SUPERIOR

STATION/POSITION TIME  TEMP    WIND        PRES    WAVE
                       AIR SEA DIR/SP/G            HT/PER
                 (UTC) (F)     (DEG/KT/KT) (MB)    (FT/S)
W MID LAKE BUOY  1250   44 38  250/ 12/ 14 1013.8R   1/ 3
DEVILS ISLAND    1300   54     240/ 18/ 19 1014.3S
SAXON HARBOR     1300   65     200/  4/  7 1014.6R
$$

LMZ867-665-643>646-301500-
LAKE MICHIGAN

STATION/POSITION TIME  TEMP    WIND        PRES    WAVE
                       AIR SEA DIR/SP/G            HT/PER
                 (UTC) (F)     (DEG/KT/KT) (MB)    (FT/S)
CHAMBERS ISLAND  1340   65     210/  4/  7 1015.2R
N MID LAKE BUOY  1250   52 48  230/  8/  8 1014.2R   1/ 4
NORTHPORT PIER   1300   67     250/  4/  8 1014.9R
KEWAUNEE LAKESHO 1300   67     300/  4/  6 1015.0R
SHEBOYGAN LAKESH 1300   68     280/  9/ 10 1016.1R
PORT WASHINGTON  1300   72     290/  6/  9 1016.9
S MID LAKE BUOY  1250   56 51  220/  4/  4 1016.3R   0
KENOSHA   LAKESH 1300   71     300/  7/  8 1016.6R
$$

TC  - TEMPERATURE IN CELSIUS
VSB - VISIBILITY IN STATUTE MILES
WCI - WIND CHILL INDEX
HX  - HEAT INDEX





USA.gov is the U.S. government's official web portal to all federal, state and local government web resources and services.